Theta_e
281 281 281 281 281 282 281 281 281 281 281 282 282 282 283 284 285 284 284 284 284 283 284 284 284 284 285 285 286 286 286 286 286 287 286 286 286 286 286 286 286 286
280 281 281 281 281 281 281 281 281 281 281 281 282 282 282 283 284 284 284 284 284 284 284 284 283 283 283 284 285 284 284 285 285 287 286 286 286 286 286 286 285 285
279 279 280 279 279 279 280 280 280 280 280 280 281 282 282 283 283 283 283 283 283 283 283 283 283 283 283 283 283 283 283 284 283 285 285 285 286 286 286 286 286 285
278 279 279 279 279 279 279 279 279 279 279 279 279 280 281 282 282 282 282 283 282 282 282 282 282 283 282 282 283 282 282 283 283 284 284 284 284 285 285 285 286 286
279 279 280 279 279 279 279 278 278 279 279 278 278 279 280 279 279 279 280 280 280 280 280 281 281 282 282 282 282 281 282 282 282 283 282 282 283 284 284 285 284 285
280 280 280 279 279 278 279 278 278 279 279 279 279 279 279 279 279 278 279 278 279 279 279 279 279 280 281 281 281 281 281 281 281 281 281 281 281 282 283 284 283 283
278 279 279 279 279 278 278 278 278 279 279 278 278 279 278 279 278 278 279 279 278 279 278 278 279 279 279 279 279 280 280 280 281 281 280 280 281 281 281 281 282 281
278 278 278 277 277 278 278 278 278 278 278 279 279 279 278 278 278 278 278 278 278 278 279 279 279 279 278 278 278 278 279 280 280 280 279 279 280 279 280 281 281 281
276 277 276 276 277 277 277 278 278 279 278 278 278 278 279 278 278 278 278 278 278 278 278 278 278 278 278 278 278 278 278 278 279 278 278 278 279 279 279 279 279 280
276 276 276 276 276 276 276 277 277 277 277 277 278 277 278 278 278 278 278 277 277 278 278 277 278 278 278 278 278 278 278 278 278 278 278 278 278 278 279 279 278 279
276 275 275 275 275 275 276 276 276 277 276 276 276 276 276 276 277 276 276 276 277 277 277 277 277 277 277 277 278 277 277 277 277 277 277 277 277 278 280 278 278 278
275 275 275 275 275 275 276 276 276 276 275 275 275 276 276 275 276 276 276 276 276 276 276 276 276 276 276 277 277 277 277 277 277 277 277 277 277 277 277 278 278 278
275 275 275 274 275 275 275 275 275 275 275 275 276 275 275 275 275 275 275 275 275 275 275 275 276 276 276 276 276 276 276 276 276 276 277 277 277 278 278 278 278 278
275 274 275 275 275 275 275 275 275 274 274 274 274 274 274 274 274 274 274 274 274 274 274 275 275 275 275 275 275 275 275 276 276 276 277 277 277 278 278 278 278 278
275 275 275 274 274 274 273 273 272 272 272 272 272 272 272 272 272 272 272 272 272 272 272 273 273 273 274 274 275 275 276 276 276 277 277 276 277 277 278 278 278 278
274 273 273 272 272 271 271 271 270 270 270 270 270 270 269 270 270 270 270 270 270 270 270 271 271 272 273 276 277 276 275 276 276 276 276 276 276 276 276 277 277 278
272 271 271 270 270 270 269 268 268 268 267 267 267 267 268 268 268 268 268 268 268 268 268 268 269 270 273 275 277 278 276 275 275 275 275 275 275 275 275 276 276 277
270 269 268 268 267 267 266 266 266 265 265 265 265 266 266 266 266 266 266 266 266 266 266 266 267 270 273 274 275 276 276 274 274 273 274 274 274 274 274 274 275 275
268 266 266 265 265 264 264 264 263 263 263 263 263 264 264 264 264 264 264 265 265 264 264 265 265 268 271 273 274 275 275 274 272 273 273 273 273 273 273 273 274 274
266 263 263 263 263 263 262 262 262 262 262 263 263 263 263 262 262 263 263 263 263 263 263 263 263 266 271 272 273 274 275 274 271 271 271 271 271 271 271 271 271 272
264 263 262 262 262 261 261 260 261 261 261 261 261 261 261 261 261 261 261 262 261 261 261 261 262 268 270 271 272 273 274 274 270 270 269 269 269 269 269 270 270 271
262 261 261 260 261 260 259 260 260 260 260 260 260 260 260 261 261 261 260 260 260 260 260 260 261 268 269 270 272 273 274 270 268 268 268 268 268 269 269 269 270 270
262 261 260 260 260 259 258 259 259 259 259 260 259 259 260 259 259 259 260 260 259 260 259 260 260 264 268 270 271 272 271 267 267 267 267 267 267 268 269 269 269 270
261 259 259 259 258 258 258 259 259 259 258 259 259 258 258 258 259 259 259 259 259 259 259 259 260 263 268 269 270 271 270 267 267 266 266 267 267 268 268 268 269 271
259 259 259 258 257 258 257 257 258 258 258 258 258 258 258 258 258 258 258 258 258 259 261 260 260 262 266 268 270 270 269 267 267 267 266 266 266 266 267 268 268 269
258 258 258 257 257 257 257 257 258 257 257 258 258 257 257 257 258 257 257 257 258 258 259 259 259 259 262 268 269 270 271 268 267 266 265 266 266 266 266 267 267 268
Wind_Speed
6 5 6 6 6 6 6 7 7 7 7 7 7 7 7 6 7 8 8 8 8 8 8 8 7 7 7 7 6 6 6 6 6 5 7 6 6 6 7 7 7 6
7 6 6 6 6 6 7 6 6 7 7 6 6 6 6 7 8 8 9 10 9 9 8 8 8 8 8 7 7 6 6 5 6 4 6 7 6 5 6 6 6 6
5 6 6 6 6 6 6 5 5 5 6 5 4 5 6 5 7 7 7 8 8 8 9 8 9 8 8 7 7 6 6 7 6 5 5 5 5 5 5 4 5 5
4 4 5 5 5 5 4 5 4 4 3 5 4 3 3 4 4 6 6 7 7 7 7 7 8 8 8 8 8 7 7 6 5 5 6 5 4 3 5 4 4 4
4 4 4 4 3 3 2 4 5 5 5 4 4 4 5 6 6 6 6 6 5 5 6 6 6 7 8 8 8 8 8 8 7 6 6 7 6 5 5 4 5 5
3 2 2 3 2 4 4 4 4 5 5 7 7 6 6 6 7 7 7 8 7 7 7 7 6 6 6 6 6 6 7 8 9 10 10 9 8 5 4 5 6 6
4 4 5 4 5 5 4 4 4 4 4 3 4 5 4 6 6 7 7 7 7 7 7 7 7 8 6 6 6 7 6 6 7 8 9 9 10 13 9 5 5 6
4 3 3 4 4 4 4 4 4 4 4 5 5 6 5 6 6 5 5 6 6 8 8 9 8 8 8 7 8 8 8 5 6 7 7 8 7 8 10 10 10 9
3 3 3 4 4 4 5 5 5 6 5 5 6 6 5 5 6 6 7 8 8 9 9 9 9 9 8 8 8 9 10 9 8 7 8 8 9 9 8 7 9 10
4 4 4 4 4 4 5 5 5 5 5 5 5 5 7 7 5 6 6 6 7 8 8 8 10 10 10 8 8 8 9 10 10 9 9 8 9 9 9 9 9 10
5 5 4 5 5 5 5 5 5 5 5 4 5 5 4 5 6 4 5 5 6 7 8 8 8 9 9 9 8 7 8 9 9 9 9 10 10 10 9 10 10 10
4 5 5 5 5 4 5 5 5 4 4 4 4 5 5 4 5 5 5 7 7 7 8 8 8 8 8 9 9 9 9 9 9 9 10 10 11 11 10 9 10 11
4 4 3 3 3 4 4 3 4 4 5 6 6 6 7 7 7 7 7 6 8 8 8 9 9 8 8 8 9 8 8 9 10 11 11 10 10 11 11 10 10 10
2 3 2 3 3 3 3 4 5 5 6 6 6 7 7 7 8 9 9 8 9 9 9 8 9 9 8 8 8 8 9 10 10 11 12 12 12 12 11 12 12 11
2 3 3 3 3 3 4 5 5 5 6 6 5 6 6 6 7 7 9 10 8 8 9 9 9 9 8 9 10 11 10 11 11 12 12 13 13 13 12 12 11 11
1 2 2 2 3 4 5 6 6 7 7 7 7 6 6 7 7 7 7 8 11 11 9 9 8 7 12 22 19 14 13 12 12 12 12 12 12 12 11 11 10 11
3 4 5 6 6 7 6 7 9 8 8 7 7 7 8 8 8 9 9 10 10 11 12 10 9 9 20 20 22 23 16 12 11 11 11 11 12 11 13 12 11 10
5 5 6 6 6 6 7 6 7 7 8 8 9 10 9 8 9 9 10 9 9 11 11 10 10 14 21 22 23 23 21 16 12 12 10 12 11 11 11 11 12 11
4 4 4 4 5 6 6 6 7 7 7 8 9 8 9 9 10 11 10 9 10 12 11 11 10 16 20 22 22 23 23 20 12 12 11 11 10 12 11 12 10 11
4 4 4 4 4 5 5 6 6 7 6 6 7 8 7 8 7 9 8 9 9 11 12 11 10 16 22 23 23 24 23 21 14 15 15 14 15 14 14 15 15 13
4 3 4 4 4 5 5 5 6 6 6 6 6 7 8 8 8 9 8 8 9 10 11 12 10 20 22 24 24 24 24 22 14 14 14 13 13 12 13 12 13 14
3 4 4 4 5 5 5 7 6 5 7 7 6 6 5 6 7 6 9 10 9 10 11 12 11 21 23 23 25 24 26 16 13 13 13 13 13 13 13 13 13 13
4 4 5 5 5 6 6 6 7 7 6 5 7 6 7 7 7 8 7 9 11 10 11 12 11 16 23 24 25 26 21 13 13 12 11 13 13 13 13 13 13 13
3 4 5 6 5 6 7 7 6 5 5 5 7 9 8 7 8 8 7 7 10 11 10 12 12 16 23 24 25 26 22 15 12 11 13 13 13 13 12 12 13 22
3 3 4 5 6 7 6 8 7 7 6 5 6 6 8 7 8 8 9 8 8 10 15 15 12 14 22 24 26 24 20 13 11 10 12 13 13 13 11 12 14 15
3 4 4 5 7 7 6 7 6 6 6 6 6 6 7 7 7 8 10 10 9 9 10 10 12 12 15 26 24 25 25 16 11 11 11 13 12 13 13 12 13 13
Wind_Direction
61 61 65 62 59 53 45 42 34 42 35 26 29 13 15 0 1 8 9 10 11 13 7 4 2 6 6 11 15 14 20 7 4 5 356 352 348 346 333 326 323 312
49 52 54 57 52 42 39 41 35 39 28 27 20 13 8 8 5 8 8 5 5 6 1 0 360 359 359 3 2 9 6 10 4 3 357 354 348 345 333 326 319 313
49 52 53 56 55 45 40 33 40 30 31 11 10 14 3 4 359 3 3 5 2 359 358 355 353 353 353 354 354 360 360 354 359 350 353 346 338 345 326 324 322 315
55 62 62 53 50 47 36 45 32 31 19 19 9 345 359 345 355 357 356 359 357 349 347 348 347 343 348 346 350 349 348 344 337 341 340 334 338 327 320 322 311 313
67 57 60 61 52 52 51 47 31 22 22 5 356 1 3 360 0 357 356 351 352 339 337 336 336 337 340 340 344 341 341 337 337 345 337 328 325 333 319 323 315 312
66 79 77 70 67 45 35 35 21 20 8 8 356 352 358 356 357 352 349 347 344 340 334 332 329 326 327 326 328 331 330 334 330 336 335 330 323 318 310 316 314 309
22 25 21 19 23 23 24 8 4 7 5 341 341 347 351 347 347 343 339 338 335 333 331 328 328 327 329 326 325 321 320 315 316 324 325 323 327 325 324 312 301 296
4 4 24 20 23 11 2 349 342 342 344 351 348 330 349 335 334 330 328 326 328 325 326 327 325 324 326 331 327 324 319 318 317 315 310 306 310 307 313 319 319 312
360 6 6 15 14 7 359 347 343 335 347 352 335 330 330 327 323 326 326 328 327 325 325 325 324 322 324 328 326 326 322 320 320 317 312 309 307 298 295 296 300 302
8 360 2 5 4 353 351 334 336 328 330 337 321 325 323 321 325 317 316 315 311 311 313 313 317 317 319 321 320 320 319 315 316 316 310 305 297 296 297 293 287 288
353 8 3 349 348 345 334 328 323 321 318 314 313 313 307 312 312 304 302 300 303 304 305 305 303 306 309 312 314 313 309 308 306 306 304 300 296 292 288 287 285 279
359 0 359 347 337 327 314 309 309 311 307 304 308 309 309 303 301 310 309 309 311 308 305 304 303 306 308 309 311 311 307 303 300 297 297 293 291 288 284 280 280 281
5 351 335 323 316 307 313 327 333 334 336 335 336 334 329 328 328 325 324 320 315 314 311 310 309 309 312 308 304 301 299 299 298 296 290 289 286 286 284 278 273 273
341 311 323 324 318 333 342 347 344 340 342 338 339 337 333 334 333 330 327 328 320 318 316 318 317 318 317 313 307 306 304 298 295 293 292 289 287 283 283 283 283 280
348 348 358 342 346 350 350 346 342 337 337 337 333 330 331 326 325 328 326 322 320 321 322 322 324 324 325 325 321 314 309 303 301 297 295 294 290 287 283 281 277 277
2 13 2 345 359 354 354 347 343 340 336 335 335 331 329 327 331 333 326 327 327 324 326 327 323 323 321 318 316 313 310 305 299 294 291 287 287 287 282 277 276 278
34 15 3 7 2 357 351 349 344 341 338 335 337 338 337 339 337 335 340 335 330 327 326 326 323 321 319 318 316 312 308 302 298 293 287 284 281 281 284 287 285 282
19 11 4 1 358 353 345 342 338 338 339 339 338 339 340 341 338 338 335 333 327 324 320 321 318 318 319 317 314 312 309 305 297 290 287 285 282 283 284 288 290 290
18 12 357 353 350 344 336 337 338 337 340 340 338 338 334 335 333 331 328 329 326 322 320 320 316 316 316 316 313 311 309 307 297 289 286 284 284 286 287 289 290 290
14 359 350 341 339 336 338 337 339 336 332 329 325 329 328 322 321 321 322 323 323 320 316 316 310 312 313 312 311 309 308 306 299 298 296 294 296 298 301 301 299 299
1 348 342 334 333 334 335 331 329 324 326 325 325 322 323 321 323 321 319 318 318 315 310 308 306 309 311 310 310 309 308 307 302 300 297 294 295 295 292 289 291 293
352 340 332 331 329 331 329 324 322 320 321 321 316 311 303 307 306 307 310 313 312 310 306 303 304 309 309 309 309 309 309 307 304 298 295 293 294 297 296 296 293 290
347 339 331 328 328 322 319 317 320 318 316 314 311 310 311 312 307 308 309 307 307 305 302 300 299 307 309 309 310 309 309 303 299 297 295 296 296 300 300 300 301 302
339 332 320 316 315 311 309 309 308 303 302 313 310 312 310 307 308 305 301 300 299 299 298 298 299 305 308 308 308 306 305 303 301 295 295 297 298 296 296 296 297 299
315 312 304 302 301 301 303 303 304 301 302 302 294 296 296 303 302 300 298 295 290 291 298 299 297 303 306 305 304 303 303 296 294 289 290 295 298 297 295 296 295 295
299 295 292 293 294 296 294 290 293 298 297 298 295 291 295 299 297 294 297 296 295 295 294 295 297 296 299 302 302 301 301 299 292 292 290 289 289 290 288 278 274 271